SCP
0 0 0 0 0 0 0 0 0 0 0 0 0 0 0 0 0 0 0 0 0 0 0 0 0 0 0 0 0 0 0 0 0 0 0 0 0 0 0 0 0 0 0 0
0 0 0 0 0 0 0 0 0 0 0 0 0 0 0 -0 0 0 0 0 0 0 -0 0 0 0 0 0 0 0 0 0 0 0 0 0 0 0 0 0 0 0 0 0
0 0 0 0 0 0 0 0 0 0 0 0 0 -0 0 0 0 0 0 0 0 0 0 -0 0 0 0 0 0 0 0 0 0 0 0 0 0 0 0 0 0 0 0 0
0 0 0 0 0 0 0 0 0 0 0 0 0 0 0 0 0 0 0 0 0 0 0 0 0 0 0 0 0 0 0 0 0 0 0 0 0 0 0 0 0 0 0 0
0 0 0 0 0 0 0 0 0 0 0 0 0 0 0 0 0 0 0 0 0 0 0 0 0 0 0 0 0 0 0 0 0 0 0 0 0 0 0 0 0 0 0 0
0 0 0 0 0 0 0 0 0 0 0 0 0 0 0 0 0 0 0 0 0 0 0 0 0 0 0 0 0 0 0 0 0 0 0 0 0 0 0 0 0 0 0 0
0 0 0 0 0 0 0 0 0 0 0 0 0 0 0 0 0 0 0 0 0 0 0 0 0 0 0 0 0 0 0 0 0 0 0 0 0 0 0 0 0 0 0 0
0 0 0 0 0 0 0 0 0 0 0 0 0 0 0 0 0 0 0 0 0 0 0 0 0 0 0 0 0 0 0 0 0 0 0 0 0 0 0 0 0 0 0 0
0 0 0 0 0 0 0 0 0 0 0 0 0 0 0 0 0 0 0 0 0 0 0 0 0 0 0 0 0 0 0 0 0 0 0 0 0 0 0 0 0 0 0 0
0 0 0 0 0 0 0 0 0 0 0 0 0 0 0 0 0 0 0 0 0 0 0 0 0 0 0 0 0 0 0 0 0 0 0 0 0 0 0 0 0 0 0 0
0 0 0 0 0 0 0 0 0 0 0 0 0 0 0 0 0 0 0 0 0 0 0 0 0 0 0 0 0 0 0 0 0 0 0 0 0 0 0 0 0 0 0 0
0 0 0 0 0 0 0 0 0 0 0 0 0 0 0 0 0 0 0 0 0 0 0 0 0 0 0 0 0 0 0 0 0 0 0 0 0 0 0 0 0 0 0 0
0 0 0 0 0 0 0 0 0 0 0 0 0 0 0 0 0 0 0 0 0 0 0 0 0 0 0 0 0 0 0 0 0 0 0 0 0 0 0 0 0 0 0 0
0 0 0 0 0 0 0 0 0 0 0 0 0 0 0 0 0 0 0 0 0 -0 -0 -0 0 0 0 0 0 0 0 0 0 0 0 0 0 0 0 0 0 0 0 0
0 0 0 0 0 0 0 0 0 0 0 0 0 0 0 0 0 0 0 -0 -0 -0 0 -0 0 0 0 0 0 0 0 0 0 0 0 0 0 0 0 0 0 0 0 0
0 0 0 0 0 0 0 0 0 0 0 0 0 0 0 0 0 0 0 -0 -0 0 0 0 0 0 0 0 0 0 0 0 0 0 0 0 0 0 0 0 0 0 0 0
0 0 0 0 0 0 0 0 0 0 0 0 0 0 0 0 0 -0 -0 -0 0 0 0 0 0 0 0 0 0 0 0 0 0 0 0 0 0 0 0 0 0 0 0 0
0 0 0 0 0 0 0 0 0 0 0 0 0 0 0 0 0 0 0 0 0 0 0 0 0 0 0 0 0 0 0 0 0 0 0 0 0 0 0 0 0 0 0 0
0 0 0 0 0 0 0 0 0 0 0 0 0 0 0 0 0 0 0 0 0 0 0 0 0 0 0 0 0 0 0 0 0 0 0 0 0 0 0 0 0 0 0 0
0 0 0 0 0 0 0 0 0 0 0 0 0 0 0 0 0 0 0 0 0 0 0 0 0 0 0 0 0 0 0 0 0 0 0 0 0 0 0 0 0 0 0 0
0 0 0 0 0 0 0 0 0 0 0 0 0 0 0 0 0 0 0 0 0 0 0 0 0 0 0 0 0 0 0 0 0 0 0 0 0 0 0 0 0 0 0 0
0 0 0 0 0 0 0 0 0 0 0 0 0 0 0 0 0 0 0 0 0 0 0 0 0 0 0 0 0 0 0 0 0 0 0 0 0 0 0 0 0 0 0 0
0 0 0 0 0 0 0 0 0 0 0 0 0 0 0 0 0 0 0 0 0 0 0 0 0 0 0 0 -0 0 0 0 0 0 0 0 0 0 0 0 0 0 0 0
0 0 0 0 0 0 0 0 0 0 0 0 0 0 0 0 0 0 0 0 0 0 0 0 0 0 0 0 0 0 0 0 0 0 0 0 0 0 0 0 0 0 0 0
0 0 0 0 0 0 0 0 0 0 0 0 0 0 0 0 0 0 0 0 0 0 0 0 0 0 0 0 0 0 0 0 0 0 0 0 0 0 0 0 0 0 0 0
0 0 0 0 0 0 0 0 0 0 0 0 0 0 0 0 0 0 0 0 0 0 0 0 0 0 0 0 0 0 0 0 0 0 0 0 0 0 0 0 0 0 0 0
Wind_Speed_500mb
11 8 16 18 10 9 12 9 8 3 3 6 10 13 24 21 27 35 40 43 51 55 45 46 46 48 49 49 48 45 41 40 43 42 42 43 41 40 39 38 38 39 37 36
9 17 11 17 13 10 9 8 6 1 4 4 7 21 21 19 25 49 56 54 52 51 54 52 53 55 57 55 52 50 49 48 46 42 40 40 37 39 38 39 41 41 41 40
15 5 26 13 8 14 4 11 8 3 3 4 10 15 12 8 20 42 52 57 54 52 54 57 59 60 62 67 61 57 55 51 48 46 45 46 45 44 43 44 42 41 41 42
7 4 18 17 12 12 10 10 11 11 5 5 4 9 12 10 16 15 38 42 55 57 57 60 62 65 66 63 63 65 59 56 54 52 51 50 47 43 38 37 36 39 41 42
12 15 15 13 19 14 8 12 11 7 7 3 4 3 14 7 12 12 19 8 11 30 47 61 70 68 68 66 66 65 63 64 59 56 54 53 51 45 42 41 41 41 42 43
4 1 4 13 8 6 22 14 14 9 6 3 6 8 11 5 1 11 17 30 25 14 18 26 38 61 71 73 73 71 68 65 65 62 59 57 53 49 49 47 45 43 41 43
5 3 4 6 15 10 6 15 5 5 3 10 7 3 16 12 11 8 20 29 13 4 11 12 19 35 56 65 76 76 72 71 67 66 64 59 56 52 53 50 47 47 45 44
13 5 15 7 11 18 15 15 11 14 9 6 6 11 7 8 15 15 19 30 30 22 20 16 7 8 25 42 54 69 71 71 69 66 63 61 59 57 56 53 51 51 48 44
11 8 3 2 1 11 12 11 11 13 5 5 7 12 10 1 10 16 32 54 53 50 48 37 23 9 5 19 31 43 57 64 66 65 64 63 61 60 57 54 53 54 52 49
14 9 2 1 2 6 9 17 7 4 9 7 7 8 9 10 7 5 18 39 49 43 41 40 41 31 15 2 12 23 34 44 52 59 64 63 60 59 57 56 58 58 55 54
10 8 3 4 11 16 6 6 7 9 6 10 6 10 11 19 16 16 16 32 38 37 40 38 37 35 32 21 6 7 20 30 39 47 55 61 61 61 61 61 59 59 58 58
11 10 8 8 4 2 0 12 11 9 10 4 3 8 10 18 20 24 19 25 28 32 33 30 30 30 27 24 19 9 5 15 24 34 45 54 60 62 64 64 61 61 62 62
15 4 7 10 8 3 9 8 8 10 6 12 10 9 5 13 16 13 13 11 20 26 25 21 16 20 22 19 17 16 11 6 11 22 32 42 52 59 64 66 65 63 64 65
17 6 11 16 8 13 11 12 13 12 7 11 12 9 11 15 14 16 7 17 24 26 28 29 24 17 13 14 12 10 10 9 10 15 23 32 39 47 55 61 65 66 66 69
6 8 5 6 3 5 8 18 19 23 12 20 11 15 12 16 14 9 9 16 21 25 29 33 32 27 22 17 16 17 17 17 20 23 26 27 32 37 45 53 58 63 67 70
7 5 6 3 10 16 4 6 19 17 11 10 11 13 11 18 10 5 7 15 27 26 27 28 29 31 30 27 23 21 21 23 26 28 32 36 40 41 43 48 53 59 64 68
22 13 7 8 6 16 11 14 15 9 8 16 18 14 4 16 16 20 14 23 25 22 22 25 28 28 29 31 34 33 30 27 25 28 31 33 37 43 46 48 50 54 59 63
19 18 8 6 8 8 13 2 9 19 12 20 7 12 12 6 22 21 25 27 22 20 20 22 24 25 26 28 29 32 33 35 35 34 32 35 37 36 38 45 50 53 55 59
7 11 6 9 6 8 12 13 15 16 17 22 30 13 20 25 26 16 20 18 18 17 18 19 21 23 24 27 29 32 35 36 37 38 39 40 42 45 44 41 41 45 51 56
7 6 8 5 12 17 12 7 17 7 9 17 35 23 28 38 10 8 14 13 11 12 15 17 21 24 27 28 31 34 37 38 41 43 43 43 42 42 42 42 43 41 46 49
7 6 23 3 6 14 11 11 19 11 11 18 28 29 42 11 13 37 15 7 9 12 15 19 22 25 28 29 31 35 39 44 45 45 47 46 45 44 42 39 39 39 42 47
14 15 8 6 3 13 21 15 17 8 21 35 39 40 41 41 32 21 11 6 10 16 21 24 27 33 36 39 40 41 42 40 41 42 43 44 45 43 41 39 34 36 38 43
4 13 14 22 14 3 43 4 19 39 52 33 40 36 30 25 18 10 4 4 10 18 24 29 32 37 43 47 50 48 45 41 38 41 42 42 44 42 38 36 32 32 33 37
5 6 8 8 8 8 39 24 40 42 39 37 36 30 21 17 10 5 0 5 12 20 27 34 38 40 43 44 46 45 44 42 41 40 38 38 37 36 35 31 28 29 30 33
7 17 11 1 6 16 19 30 41 38 35 33 29 24 19 13 6 4 8 13 18 23 29 34 39 41 41 39 37 38 39 40 40 41 41 38 35 33 31 28 28 26 26 29
16 14 11 10 38 19 34 50 44 42 39 32 24 19 12 7 4 7 12 14 17 22 25 29 29 30 29 29 29 30 31 33 34 33 32 32 32 31 31 29 28 26 27 29
Wind_Direction_500mb
161 129 192 185 172 151 143 132 153 221 360 200 246 266 266 243 241 249 246 240 237 237 236 233 228 228 222 220 222 221 220 218 222 224 225 228 232 234 234 234 235 235 236 236
76 222 173 137 140 118 120 125 198 31 35 168 350 278 262 238 238 245 249 246 242 240 240 234 231 229 227 229 228 226 227 224 226 229 232 237 240 241 241 240 240 240 240 241
162 239 146 137 148 129 136 155 170 147 66 68 335 287 282 280 245 255 251 249 249 245 244 238 233 232 231 229 228 231 232 230 230 231 230 234 235 237 237 240 243 245 245 246
191 127 149 142 169 136 165 184 129 121 92 222 17 276 300 293 299 279 271 259 254 248 244 244 239 235 235 235 233 233 234 233 233 232 233 238 243 248 250 252 252 250 250 250
220 166 151 161 184 156 191 137 120 105 99 29 319 65 268 2 311 317 338 335 305 261 253 249 246 243 243 239 236 236 235 234 234 235 237 241 244 246 245 245 246 247 249 249
130 139 194 191 74 136 148 86 51 61 79 353 253 143 281 243 160 294 311 322 310 272 280 256 253 238 238 238 237 235 236 237 235 235 238 241 244 244 246 246 248 251 253 252
49 185 290 163 83 24 107 103 31 9 17 221 336 127 253 281 273 254 303 340 8 114 331 278 267 240 229 230 232 233 234 236 236 236 239 242 245 245 248 248 249 250 253 255
149 237 177 183 176 170 187 153 155 183 192 212 66 234 252 293 10 81 67 66 68 53 36 26 331 255 226 230 232 231 233 235 236 238 241 243 245 246 248 249 250 252 254 257
132 222 343 23 40 158 194 180 144 105 18 88 212 282 326 322 15 62 73 72 60 55 52 49 40 32 225 227 234 233 235 237 238 239 242 245 247 249 251 253 253 254 253 254
200 109 325 282 121 43 177 153 85 3 131 232 241 269 197 196 123 68 60 60 47 52 51 48 45 47 53 124 221 227 232 237 241 242 244 247 250 253 255 254 254 255 255 254
140 98 243 134 208 173 135 173 66 117 139 160 154 251 199 172 185 139 95 58 40 51 43 44 43 44 47 49 48 226 229 231 235 238 242 246 250 252 254 254 254 255 256 254
175 115 144 199 263 305 337 177 154 143 214 231 141 265 168 167 165 122 100 50 53 51 48 39 34 38 40 44 47 38 283 251 244 242 243 245 249 251 252 254 255 255 256 255
173 142 83 7 356 12 216 195 132 114 99 197 138 246 123 180 182 136 68 30 49 37 34 38 39 31 36 43 40 35 22 348 274 257 253 251 251 250 251 253 254 255 256 256
132 146 168 189 203 132 177 182 181 141 147 162 214 195 200 210 189 209 7 49 27 33 46 48 49 43 26 24 32 29 11 347 310 283 271 264 261 260 259 258 257 257 258 258
74 134 120 26 71 110 155 173 180 202 170 192 186 207 212 193 173 198 78 30 51 64 54 48 48 47 40 28 11 354 337 316 300 294 288 289 284 275 267 262 261 259 257 258
151 99 47 65 43 43 30 190 206 205 189 96 146 240 148 141 129 164 57 52 79 69 63 51 46 42 39 35 25 8 349 339 333 322 307 294 286 280 275 271 268 263 259 259
160 155 115 242 44 9 334 210 183 198 201 150 186 208 165 160 159 145 104 109 92 73 54 50 48 39 32 27 22 15 6 352 332 313 308 308 299 290 283 278 272 267 264 261
149 147 150 220 87 249 242 235 194 194 198 201 178 198 193 160 114 108 117 117 94 78 63 50 36 27 18 11 3 360 353 346 340 331 316 304 295 295 290 283 279 274 268 264
161 125 120 156 171 278 256 202 172 170 250 201 209 197 162 138 123 101 112 103 87 69 44 26 13 3 356 349 346 345 343 341 338 330 326 318 307 301 294 289 282 276 273 271
53 143 110 143 166 209 229 173 171 128 285 194 193 198 152 154 151 207 135 112 71 33 16 5 357 347 340 337 334 332 331 333 331 329 327 320 315 308 299 294 289 276 269 268
95 62 190 170 225 285 247 155 145 111 238 147 175 178 162 142 148 147 137 95 23 7 359 355 347 340 339 338 336 332 328 326 327 326 322 318 314 309 304 297 289 283 276 270
148 145 177 80 104 269 154 110 167 187 122 132 129 131 127 125 126 125 112 55 359 344 342 343 342 337 336 334 334 335 334 333 330 326 321 316 313 309 303 297 293 285 278 276
186 180 171 183 202 208 171 191 187 151 139 140 132 130 126 123 122 120 93 4 334 328 329 328 328 328 328 329 331 332 333 332 330 327 323 317 312 306 301 297 293 289 284 280
243 201 127 115 192 187 170 157 159 159 152 147 147 146 147 144 143 136 86 310 305 307 310 313 314 315 317 319 323 326 328 329 331 329 321 315 310 305 302 299 296 295 294 293
203 141 152 322 73 94 179 174 168 161 155 151 151 154 157 159 175 254 287 301 306 310 314 318 319 317 316 316 318 322 325 328 332 336 336 336 334 325 317 312 310 312 306 295
192 170 162 209 180 174 196 186 176 169 166 165 166 165 175 189 231 299 304 310 314 315 321 325 323 323 325 328 333 334 335 335 336 343 346 348 347 343 336 330 324 321 313 306
Wind_Speed_850mb
11 8 16 18 10 9 12 9 8 3 3 6 10 13 24 21 27 35 40 43 51 55 45 46 46 48 49 49 48 45 41 40 43 42 42 43 41 40 39 38 38 39 37 36
9 17 11 17 13 10 9 8 6 1 4 4 7 21 21 19 25 49 56 54 52 51 54 52 53 55 57 55 52 50 49 48 46 42 40 40 37 39 38 39 41 41 41 40
15 5 26 13 8 14 4 11 8 3 3 4 10 15 12 8 20 42 52 57 54 52 54 57 59 60 62 67 61 57 55 51 48 46 45 46 45 44 43 44 42 41 41 42
7 4 18 17 12 12 10 10 11 11 5 5 4 9 12 10 16 15 38 42 55 57 57 60 62 65 66 63 63 65 59 56 54 52 51 50 47 43 38 37 36 39 41 42
12 15 15 13 19 14 8 12 11 7 7 3 4 3 14 7 12 12 19 8 11 30 47 61 70 68 68 66 66 65 63 64 59 56 54 53 51 45 42 41 41 41 42 43
4 1 4 13 8 6 22 14 14 9 6 3 6 8 11 5 1 11 17 30 25 14 18 26 38 61 71 73 73 71 68 65 65 62 59 57 53 49 49 47 45 43 41 43
5 3 4 6 15 10 6 15 5 5 3 10 7 3 16 12 11 8 20 29 13 4 11 12 19 35 56 65 76 76 72 71 67 66 64 59 56 52 53 50 47 47 45 44
13 5 15 7 11 18 15 15 11 14 9 6 6 11 7 8 15 15 19 30 30 22 20 16 7 8 25 42 54 69 71 71 69 66 63 61 59 57 56 53 51 51 48 44
11 8 3 2 1 11 12 11 11 13 5 5 7 12 10 1 10 16 32 54 53 50 48 37 23 9 5 19 31 43 57 64 66 65 64 63 61 60 57 54 53 54 52 49
14 9 2 1 2 6 9 17 7 4 9 7 7 8 9 10 7 5 18 39 49 43 41 40 41 31 15 2 12 23 34 44 52 59 64 63 60 59 57 56 58 58 55 54
10 8 3 4 11 16 6 6 7 9 6 10 6 10 11 19 16 16 16 32 38 37 40 38 37 35 32 21 6 7 20 30 39 47 55 61 61 61 61 61 59 59 58 58
11 10 8 8 4 2 0 12 11 9 10 4 3 8 10 18 20 24 19 25 28 32 33 30 30 30 27 24 19 9 5 15 24 34 45 54 60 62 64 64 61 61 62 62
15 4 7 10 8 3 9 8 8 10 6 12 10 9 5 13 16 13 13 11 20 26 25 21 16 20 22 19 17 16 11 6 11 22 32 42 52 59 64 66 65 63 64 65
17 6 11 16 8 13 11 12 13 12 7 11 12 9 11 15 14 16 7 17 24 26 28 29 24 17 13 14 12 10 10 9 10 15 23 32 39 47 55 61 65 66 66 69
6 8 5 6 3 5 8 18 19 23 12 20 11 15 12 16 14 9 9 16 21 25 29 33 32 27 22 17 16 17 17 17 20 23 26 27 32 37 45 53 58 63 67 70
7 5 6 3 10 16 4 6 19 17 11 10 11 13 11 18 10 5 7 15 27 26 27 28 29 31 30 27 23 21 21 23 26 28 32 36 40 41 43 48 53 59 64 68
22 13 7 8 6 16 11 14 15 9 8 16 18 14 4 16 16 20 14 23 25 22 22 25 28 28 29 31 34 33 30 27 25 28 31 33 37 43 46 48 50 54 59 63
19 18 8 6 8 8 13 2 9 19 12 20 7 12 12 6 22 21 25 27 22 20 20 22 24 25 26 28 29 32 33 35 35 34 32 35 37 36 38 45 50 53 55 59
7 11 6 9 6 8 12 13 15 16 17 22 30 13 20 25 26 16 20 18 18 17 18 19 21 23 24 27 29 32 35 36 37 38 39 40 42 45 44 41 41 45 51 56
7 6 8 5 12 17 12 7 17 7 9 17 35 23 28 38 10 8 14 13 11 12 15 17 21 24 27 28 31 34 37 38 41 43 43 43 42 42 42 42 43 41 46 49
7 6 23 3 6 14 11 11 19 11 11 18 28 29 42 11 13 37 15 7 9 12 15 19 22 25 28 29 31 35 39 44 45 45 47 46 45 44 42 39 39 39 42 47
14 15 8 6 3 13 21 15 17 8 21 35 39 40 41 41 32 21 11 6 10 16 21 24 27 33 36 39 40 41 42 40 41 42 43 44 45 43 41 39 34 36 38 43
4 13 14 22 14 3 43 4 19 39 52 33 40 36 30 25 18 10 4 4 10 18 24 29 32 37 43 47 50 48 45 41 38 41 42 42 44 42 38 36 32 32 33 37
5 6 8 8 8 8 39 24 40 42 39 37 36 30 21 17 10 5 0 5 12 20 27 34 38 40 43 44 46 45 44 42 41 40 38 38 37 36 35 31 28 29 30 33
7 17 11 1 6 16 19 30 41 38 35 33 29 24 19 13 6 4 8 13 18 23 29 34 39 41 41 39 37 38 39 40 40 41 41 38 35 33 31 28 28 26 26 29
16 14 11 10 38 19 34 50 44 42 39 32 24 19 12 7 4 7 12 14 17 22 25 29 29 30 29 29 29 30 31 33 34 33 32 32 32 31 31 29 28 26 27 29
Wind_Direction_850mb
161 129 192 185 172 151 143 132 153 221 360 200 246 266 266 243 241 249 246 240 237 237 236 233 228 228 222 220 222 221 220 218 222 224 225 228 232 234 234 234 235 235 236 236
76 222 173 137 140 118 120 125 198 31 35 168 350 278 262 238 238 245 249 246 242 240 240 234 231 229 227 229 228 226 227 224 226 229 232 237 240 241 241 240 240 240 240 241
162 239 146 137 148 129 136 155 170 147 66 68 335 287 282 280 245 255 251 249 249 245 244 238 233 232 231 229 228 231 232 230 230 231 230 234 235 237 237 240 243 245 245 246
191 127 149 142 169 136 165 184 129 121 92 222 17 276 300 293 299 279 271 259 254 248 244 244 239 235 235 235 233 233 234 233 233 232 233 238 243 248 250 252 252 250 250 250
220 166 151 161 184 156 191 137 120 105 99 29 319 65 268 2 311 317 338 335 305 261 253 249 246 243 243 239 236 236 235 234 234 235 237 241 244 246 245 245 246 247 249 249
130 139 194 191 74 136 148 86 51 61 79 353 253 143 281 243 160 294 311 322 310 272 280 256 253 238 238 238 237 235 236 237 235 235 238 241 244 244 246 246 248 251 253 252
49 185 290 163 83 24 107 103 31 9 17 221 336 127 253 281 273 254 303 340 8 114 331 278 267 240 229 230 232 233 234 236 236 236 239 242 245 245 248 248 249 250 253 255
149 237 177 183 176 170 187 153 155 183 192 212 66 234 252 293 10 81 67 66 68 53 36 26 331 255 226 230 232 231 233 235 236 238 241 243 245 246 248 249 250 252 254 257
132 222 343 23 40 158 194 180 144 105 18 88 212 282 326 322 15 62 73 72 60 55 52 49 40 32 225 227 234 233 235 237 238 239 242 245 247 249 251 253 253 254 253 254
200 109 325 282 121 43 177 153 85 3 131 232 241 269 197 196 123 68 60 60 47 52 51 48 45 47 53 124 221 227 232 237 241 242 244 247 250 253 255 254 254 255 255 254
140 98 243 134 208 173 135 173 66 117 139 160 154 251 199 172 185 139 95 58 40 51 43 44 43 44 47 49 48 226 229 231 235 238 242 246 250 252 254 254 254 255 256 254
175 115 144 199 263 305 337 177 154 143 214 231 141 265 168 167 165 122 100 50 53 51 48 39 34 38 40 44 47 38 283 251 244 242 243 245 249 251 252 254 255 255 256 255
173 142 83 7 356 12 216 195 132 114 99 197 138 246 123 180 182 136 68 30 49 37 34 38 39 31 36 43 40 35 22 348 274 257 253 251 251 250 251 253 254 255 256 256
132 146 168 189 203 132 177 182 181 141 147 162 214 195 200 210 189 209 7 49 27 33 46 48 49 43 26 24 32 29 11 347 310 283 271 264 261 260 259 258 257 257 258 258
74 134 120 26 71 110 155 173 180 202 170 192 186 207 212 193 173 198 78 30 51 64 54 48 48 47 40 28 11 354 337 316 300 294 288 289 284 275 267 262 261 259 257 258
151 99 47 65 43 43 30 190 206 205 189 96 146 240 148 141 129 164 57 52 79 69 63 51 46 42 39 35 25 8 349 339 333 322 307 294 286 280 275 271 268 263 259 259
160 155 115 242 44 9 334 210 183 198 201 150 186 208 165 160 159 145 104 109 92 73 54 50 48 39 32 27 22 15 6 352 332 313 308 308 299 290 283 278 272 267 264 261
149 147 150 220 87 249 242 235 194 194 198 201 178 198 193 160 114 108 117 117 94 78 63 50 36 27 18 11 3 360 353 346 340 331 316 304 295 295 290 283 279 274 268 264
161 125 120 156 171 278 256 202 172 170 250 201 209 197 162 138 123 101 112 103 87 69 44 26 13 3 356 349 346 345 343 341 338 330 326 318 307 301 294 289 282 276 273 271
53 143 110 143 166 209 229 173 171 128 285 194 193 198 152 154 151 207 135 112 71 33 16 5 357 347 340 337 334 332 331 333 331 329 327 320 315 308 299 294 289 276 269 268
95 62 190 170 225 285 247 155 145 111 238 147 175 178 162 142 148 147 137 95 23 7 359 355 347 340 339 338 336 332 328 326 327 326 322 318 314 309 304 297 289 283 276 270
148 145 177 80 104 269 154 110 167 187 122 132 129 131 127 125 126 125 112 55 359 344 342 343 342 337 336 334 334 335 334 333 330 326 321 316 313 309 303 297 293 285 278 276
186 180 171 183 202 208 171 191 187 151 139 140 132 130 126 123 122 120 93 4 334 328 329 328 328 328 328 329 331 332 333 332 330 327 323 317 312 306 301 297 293 289 284 280
243 201 127 115 192 187 170 157 159 159 152 147 147 146 147 144 143 136 86 310 305 307 310 313 314 315 317 319 323 326 328 329 331 329 321 315 310 305 302 299 296 295 294 293
203 141 152 322 73 94 179 174 168 161 155 151 151 154 157 159 175 254 287 301 306 310 314 318 319 317 316 316 318 322 325 328 332 336 336 336 334 325 317 312 310 312 306 295
192 170 162 209 180 174 196 186 176 169 166 165 166 165 175 189 231 299 304 310 314 315 321 325 323 323 325 328 333 334 335 335 336 343 346 348 347 343 336 330 324 321 313 306